Location: Avully
(45.9633°N, 6.0228°E)
Time: 14:28:37
(UTC+00:00)

CZ-6A DEB - Visible Passes

Search period start: 04 October 2024 00:00
Search period end: 14 October 2024 00:00
Orbit: 823 x 834 km, 98.8° (Epoch: 03 October)

Date Brightness Start Highest point End Pass type
(mag) Time Alt. Az. Time Alt. Az. Time Alt. Az.
04 Oct ? 18:54:11 10° WSW 18:56:32 13° W 18:58:54 10° WNW visible
05 Oct ? 18:34:16 10° SW 18:37:59 19° W 18:41:43 10° NW visible
06 Oct ? 05:08:39 10° NE 05:12:49 22° E 05:16:58 10° SE visible
06 Oct ? 18:14:58 10° SSW 18:19:28 26° W 18:24:00 10° NW visible
07 Oct ? 04:51:08 10° NE 04:54:16 15° E 04:57:24 10° SE visible
07 Oct ? 17:56:01 10° SSW 18:01:00 37° W 18:06:02 10° NNW visible
08 Oct ? 04:35:04 10° E 04:35:40 10° E 04:36:16 10° E visible
08 Oct ? 17:37:18 10° S 17:42:34 53° W 17:47:53 10° NNW visible
09 Oct ? 19:04:19 10° W 19:05:19 10° W 19:06:21 10° WNW visible
10 Oct ? 18:43:29 10° SW 18:46:41 16° W 18:49:55 10° NW visible
11 Oct ? 05:16:59 10° NE 05:21:28 26° E 05:25:56 10° SSE visible
11 Oct ? 18:23:54 10° SW 18:28:06 23° W 18:32:19 10° NW visible
12 Oct ? 04:59:14 10° NE 05:02:55 18° E 05:06:34 10° SE visible
12 Oct ? 18:04:46 10° SSW 18:09:33 32° W 18:14:24 10° NNW visible
13 Oct ? 04:42:04 10° ENE 04:44:16 12° E 04:46:28 10° ESE visible
13 Oct ? 17:45:53 10° S 17:51:03 45° W 17:56:16 10° NNW visible
